Find Starlink 5739

NORAD ID: 55571 Int'l Des: 2023-020 Owner: SPXS Country: US Constellation: starlink operational
LEOCIRCULAR

实时位置

正在加载3D地球...

关于 Starlink 5739

正在加载描述...

即将过境

Passes for default location (London). Set your location on the main map for personalized predictions.

高度历史

Loading altitude history...

两行轨道根数

1 55571U 23020C 26126.16900894 .00001390 00000-0 60003-4 0 9990
2 55571 43.0041 43.9902 0001701 271.3296 88.7361 15.27590827177669
Epoch: May 6, 2026 • Age: 17 hours

当前状态

高度 493.8 km
速度 7.62 km/s
星下点 -39.80°S, 157.35°E
发射日期 Feb 12, 2023
运行时间 3.2 years
类型 internet

技术详情

分类 Payload
质量 305.00 kg
干质量 290.00 kg
总质量 305.00 kg
长度 0.20 m
直径 2.80 m
跨度 9.00 m
形状 Box + pan
制造商 SPXS
平台类型 Starlink
阶段状态 In Orbit
所有者/国家 SPXS/US

Most Searched